METEOR 2-11 DEB, 40708

Orbit data source: Space-Track

METEOR 2-11 DEB, 40708 is space debris in LEO originally from a launch on Thu, 05 Jul 1984 UTC launched from the Plesetsk Missile And Space Complex (PKMTR). Debris objects in space refer to the collection of defunct objects orbiting the Earth. Examples of debris include non-operational satellites, rocket bodies, and fragments generated from explosions, collisions, or faulty payload assembly.

Loading next visibility...
Identifier
40708, 1984-072K
Orbit
LEO
Last TLE update
5 days ago
Origin
Manufacturer
Unknown
Mission
Spacecraft
Bus & Motor
Unknown
Mass
Unknown
Launch date (UTC)
1984-07-05 (41 years ago)
Launch vehicle
Unknown
Launch site
Plesetsk Missile And Space Complex (PKMTR)
Object type
Payload
Rocket body
Debris
Shape & HBR
Unknown
Radar Cross Section
Small (<0.1 m²)

Expand to show TLE details & history

TLE from 5 days ago
0 METEOR 2-11 DEB
1 40708U 84072K   25179.04860744  .00002032  00000-0  14507-2 0  9993
2 40708  82.5123 294.1561 0025406 216.0114 143.9343 13.96712233524579
Epoch: 2025-06-28T01:09Z
TLE epoch observation values (Epoch: 2025-06-28T01:09:59.682Z)
Latitude
Longitude
0.26472°
Altitude
923.098 km
Speed
7.383 km/s
True Right ascension
19h 36m 37s
True Declination
0° 00' 00"
Sunlit
Object was in full shadow at epoch
Visualization orbit readout
Latitude
-50.82449°
Longitude
-174.62565°
Altitude
908.752 km
Speed
7.405 km/s
Apparent Right ascension
05h 03m 27s
Apparent Declination
-53° 50' 21"
Sunlit
Object is in daylight
Visualization observer readout
Local Sidereal Time
14:22:16
Azimuth
229.109° WSW
Elevation
-59.68°
Doppler factor
1
Orbital elements
Apogee altitude
920.835 km
Perigee altitude
883.842 km
Semi-major axis
7,280.475 km
Eccentricity
0.00254
Inclination
82.5123°
RAAN
294.1561°
Arg. of periapsis
216.0114°
True anomaly
Unknown
Mean anomaly
143.9343°
Eccentric anomaly
Unknown
Mean motion
3.49384 °/min
Orbital period
103.04 mins
BSTAR
0.0014507
Loading maneuver chart data...
Loading SW <> Apogee altitude chart data...
Loading historical data...
Loading historical data...
Loading historical data...
Loading historical data...
Loading historical data...
Loading historical data...
Loading historical data...

METEOR 2-11 DEB Visibility forecast

Observer location: undefined°, undefined°

Span
Click to sort rows by Start time (UTC) header in descending order
Start Az.
Max El. time (UTC)
Max El. Az.
Max El.
End time (UTC)
End Az.
8 mins2025-07-03 06:48:13.445Z131.703° SE2025-07-03 06:52:13.445Z82.267° E22.558°2025-07-03 06:56:13.445Z36.718° NE
10 mins2025-07-03 08:31:13.445Z216.457° SW2025-07-03 08:35:13.445Z272.792° WNW34.837°2025-07-03 08:41:13.445Z354.762° N
5 mins2025-07-03 17:36:13.445Z43.236° NE2025-07-03 17:38:13.445Z66.945° ENE16.459°2025-07-03 17:41:13.445Z101.316° ESE
10 mins2025-07-03 19:18:13.445Z343.589° N2025-07-03 19:23:13.445Z241.227° WSW41.33°2025-07-03 19:28:13.445Z186.766° SSW
|